Regional Weather Roundup
Issued by NWS

Home | Current Version | Previous Version | Graphics & Text | Print | Product List | Glossary On
Versions: 1 2 3 4 5 6 7 8 9 10 11 12 13 14 15 16 17 18 19 20 21 22 23 24 25 26 27 28 29 30 31 32 33 34 35 36 37 38 39 40 41 42 43 44 45 46 47 48 49 50
556
ASUS44 KJAN 161503
RWRMS

MISSISSIPPI HOURLY WEATHER ROUNDUP
NATIONAL WEATHER SERVICE JACKSON MS
1000 AM CDT WED APR 16 2014

NOTE: "FAIR: INDICATES FEW OR NO CLOUDS BELOW 12,000 FEET WITH NO
SIGNIFICANT WEATHER AND/OR OBSTRUCTIONS TO VISIBILITY.

MSZ001>002-007>008-010>013-018>021-025>028-034>036-161600-
NORTHWEST MISSISSIPPI

CITY           SKY/WX    TMP DP  RH WIND       PRES   REMARKS
CLARKSDALE       N/A     46  30  53 E12       30.30F
CLEVELAND      FAIR      47  31  54 SE9       30.29R
GREENWOOD      SUNNY     49  28  44 SE9       30.29R
GREENVILLE     SUNNY     49  32  52 SE12      30.28R
GRENADA        FAIR      46  32  57 E10G16    30.30S
OXFORD         FAIR      45  25  45 SE3       30.31S
TUNICA         SUNNY     46  30  53 E8        30.31F
$$

MSZ003>006-009-014>017-022>024-029>033-037>039-161600-
NORTHEAST MISSISSIPPI

CITY           SKY/WX    TMP DP  RH WIND       PRES   REMARKS
BELMONT        FAIR      46  25  44 E8        30.30R
COLUMBUS AFB   SUNNY     48  27  43 E8        30.29F
CORINTH        FAIR      46  25  42 SE8       30.31R
GOLDN TRIANGLE SUNNY     46  25  42 E10G16    30.31S
STARKVILLE     FAIR      46  28  49 E8        30.28S
TUPELO         SUNNY     46  25  43 SE9       30.30S
$$

MSZ040-058-161600-
CENTRAL MISSISSIPPI

CITY           SKY/WX    TMP DP  RH WIND       PRES   REMARKS
JACKSON INTL   SUNNY     49  27  42 E8        30.27S
JACKSON HAWKNS SUNNY     50  28  42 SE9       30.27S
MERIDIAN KEY   SUNNY     48  27  44 NE7       30.27S
MERIDIAN NAS   SUNNY     48  27  44 NE7       30.28R
RAYMOND        FAIR      48  45  87 E9        30.27S
VICKSBURG      SUNNY     49  31  49 SE12      30.28R
$$

MSZ059>079-161600-
SOUTH MISSISSIPPI

CITY           SKY/WX    TMP DP  RH WIND       PRES   REMARKS
BROOKHAVEN     FAIR      48  32  53 E6        30.28R
COLUMBIA       FAIR      48  30  49 MISG      30.26S
HATTIESBURG    SUNNY     50  30  46 NE9       30.27R
MCCOMB         SUNNY     49  29  46 E8        30.27R
NATCHEZ        SUNNY     50  28  43 SE9       30.26S
PINE BELT      SUNNY     48  28  46 NE9       30.27R
$$

MSZ080>082-161600-
COASTAL MISSISSIPPI

CITY           SKY/WX    TMP DP  RH WIND       PRES   REMARKS
BAY ST LOUIS   SUNNY     52  30  43 E9        30.26
BILOXI         SUNNY     45  34  65 E10       30.24S
PASCAGOULA     SUNNY     51  30  44 NE12      30.24R
GULFPORT       SUNNY     51  32  48 VRB5      30.25R
$$



USA.gov is the U.S. government's official web portal to all federal, state and local government web resources and services.